EW4399 Weather Reports


time (UTC)temp
C
wind
direction
speed
KPH
gust
KPH
rain 1hr
cm
rain 24hr
cm
rain mn
cm
humidity
%
barometer
mb
20260508183059 15 33 6.4 16.1 0.00 2.51 0.00 52 1000.2
20260508181552 15 36 8.0 17.7 0.00 2.51 0.00 53 1000.1
20260508180037 15 92 1.6 19.3 0.00 2.51 0.00 52 1000.5
20260508174533 14 351 6.4 19.3 0.00 2.57 0.00 53 1000.7
20260508173033 14 96 8.0 19.3 0.00 2.57 0.00 58 1000.8
20260508171529 13 360 4.8 17.7 0.00 2.57 0.00 60 1000.8
20260508170026 13 57 9.7 20.9 0.00 2.57 0.00 59 1001.1
20260508164523 12 355 8.0 14.5 0.00 2.57 0.00 63 1001.1
20260508163024 12 34 4.8 16.1 0.00 2.57 0.00 68 1001.3
20260508161518 12 25 6.4 17.7 0.00 2.57 0.00 67 1001.1
20260508160016 12 344 9.7 17.7 0.00 2.57 0.00 70 1000.9
20260508154538 12 5 9.7 16.1 0.00 2.57 0.00 72 1001.0
20260508153015 12 347 6.4 14.5 0.00 2.57 0.00 75 1001.2
20260508151515 12 290 6.4 16.1 0.00 2.57 0.00 77 1001.0
20260508150012 12 63 4.8 17.7 0.00 2.57 0.00 77 1000.9
20260508144510 12 11 6.4 17.7 0.00 2.59 0.00 78 1001.3
20260508143009 11 360 9.7 19.3 0.00 2.59 0.00 80 1001.0
20260508141505 11 347 6.4 16.1 0.00 2.59 0.00 84 1000.9
20260508140003 11 63 4.8 14.5 0.00 2.59 0.00 87 1001.4
20260508134501 11 32 6.4 16.1 0.00 2.74 0.00 87 1001.3
20260508133102 10 36 3.2 14.5 0.00 2.74 0.00 90 1001.6
20260508131555 10 355 3.2 9.7 0.00 2.74 0.00 91 1001.9
20260508130054 10 292 1.6 16.1 0.00 2.74 0.00 94 1001.8
20260508124550 8 5 4.8 14.5 0.00 2.74 0.00 95 1001.6
20260508123052 8 342 4.8 14.5 0.00 2.74 0.00 96 1001.4
20260508121547 8 32 6.4 16.1 0.00 2.74 0.00 96 1001.7
20260508120042 8 54 4.8 14.5 0.00 2.74 0.00 97 1001.8
20260508114539 7 19 6.4 17.7 0.00 2.74 0.00 96 1001.6
20260508113039 7 19 4.8 14.5 0.00 2.74 0.00 97 1001.8
20260508111523 7 19 3.2 9.7 0.00 2.74 0.00 96 1001.9
20260508110019 6 355 6.4 14.5 0.00 2.74 0.00 96 1001.9
20260508104517 7 338 4.8 14.5 0.00 2.74 0.00 96 1001.8
20260508103017 7 20 3.2 12.9 0.00 2.74 0.00 96 1002.1
20260508101513 7 52 3.2 8.0 0.00 2.74 0.00 96 1002.1
20260508100013 7 36 4.8 9.7 0.00 2.74 0.00 96 1001.9
20260508094509 7 15 3.2 8.0 0.00 2.74 0.00 96 1001.9
20260508093010 7 51 0.0 8.0 0.00 2.74 0.00 97 1001.7
20260508091507 7 70 3.2 8.0 0.00 2.74 0.00 97 1001.6
20260508090005 8 63 1.6 8.0 0.00 2.74 0.00 97 1001.7
20260508084503 7 52 1.6 6.4 0.00 2.77 0.00 97 1001.4
20260508083002 7 59 3.2 6.4 0.00 2.77 0.00 97 1001.5
20260508081606 6 37 0.0 3.2 0.00 2.77 0.00 97 1001.4
20260508080056 6 222 0.0 0.0 0.00 2.77 0.00 97 1001.1
20260508074555 6 222 0.0 0.0 0.00 2.84 0.00 96 1001.0
20260508073108 6 222 0.0 3.2 0.00 2.84 0.00 97 1000.9
20260508071552 6 222 0.0 0.0 0.00 2.84 0.00 96 1001.1
20260508070052 6 222 0.0 0.0 0.00 2.84 0.00 96 1001.2
20260508064559 6 222 0.0 0.0 0.00 2.84 0.00 96 1001.2
20260508063057 6 222 0.0 0.0 0.00 2.84 0.00 96 1001.1
20260508061554 6 222 0.0 0.0 0.00 2.84 0.00 96 1001.1
20260508054547 6 222 0.0 0.0 0.00 2.84 0.00 96 1001.1
20260508053046 6 222 0.0 0.0 0.00 2.84 0.00 96 1001.1
20260508051603 6 222 0.0 0.0 0.00 2.84 0.00 96 1001.0
20260508050044 6 222 0.0 0.0 0.00 2.84 0.00 96 1000.9
20260508044548 6 223 0.0 3.2 0.00 2.84 0.00 96 1001.2
20260508043041 6 223 0.0 0.0 0.00 2.84 0.00 96 1001.0
20260508041539 6 223 0.0 0.0 0.00 2.84 0.00 96 1001.3
20260508040049 6 223 0.0 0.0 0.00 2.84 0.00 96 1001.4
20260508034545 6 223 0.0 3.2 0.00 2.84 0.00 96 1001.8
20260508033037 6 223 0.0 1.6 0.00 2.84 0.00 96 1001.8
20260508031537 6 223 0.0 1.6 0.00 2.84 0.00 96 1001.9
20260508030031 6 223 0.0 4.8 0.00 2.84 0.00 96 1001.9
20260508024552 6 223 1.6 4.8 0.00 2.84 2.84 96 1001.9
20260508023030 6 210 0.0 3.2 0.00 2.84 2.84 96 1001.9
20260508021528 6 206 1.6 8.0 0.00 2.84 2.84 96 1001.8
20260508020027 6 241 3.2 8.0 0.00 2.84 2.84 96 1002.0
20260508014526 6 192 6.4 9.7 0.00 2.84 2.84 96 1002.1
20260508013024 6 166 3.2 8.0 0.00 2.84 2.84 96 1002.0
20260508011529 6 189 1.6 9.7 0.00 2.84 2.84 96 1001.8
20260508010021 6 223 4.8 8.0 0.00 2.84 2.84 96 1001.9
20260508004536 6 191 0.0 9.7 0.00 2.84 2.84 96 1002.4
20260508003018 6 223 3.2 9.7 0.00 2.84 2.84 96 1002.5
20260508001530 6 215 1.6 9.7 0.00 2.84 2.84 96 1002.3
20260508000016 7 234 4.8 11.3 0.00 2.84 2.84 96 1002.3
20260507234516 7 200 4.8 14.5 0.05 2.84 2.84 96 1002.3
20260507233014 7 229 6.4 16.1 0.15 2.84 2.84 96 1002.2
20260507231512 7 157 3.2 19.3 0.23 2.84 2.84 96 1002.5
20260507230011 7 175 9.7 19.3 0.36 2.84 2.84 96 1002.7
20260507224512 7 153 4.8 17.7 0.43 2.79 2.79 96 1002.9
20260507223010 7 184 4.8 14.5 0.51 2.72 2.72 96 1002.8
20260507221507 7 173 9.7 19.3 0.56 2.62 2.62 96 1002.8
20260507220011 8 182 6.4 14.5 0.61 2.49 2.49 96 1003.1
20260507214507 8 219 3.2 19.3 0.66 2.36 2.36 96 1003.4
20260507213006 8 125 8.0 14.5 0.69 2.21 2.21 96 1003.0
20260507211506 8 105 9.7 16.1 0.71 2.06 2.06 96 1002.6
20260507210003 8 120 1.6 12.9 0.71 1.88 1.88 96 1003.3
20260507204602 7 169 3.2 14.5 0.71 1.73 1.73 96 1004.0
20260507203127 7 157 4.8 14.5 0.71 1.55 1.55 96 1004.2
20260507201556 7 153 4.8 8.0 0.66 1.35 1.35 96 1004.3
20260507200056 7 199 3.2 14.5 0.61 1.17 1.17 95 1004.9
20260507194606 7 211 8.0 14.5 0.48 0.99 0.99 95 1005.5
20260507193050 7 297 3.2 16.1 0.41 0.81 0.81 95 1005.0
20260507191549 7 109 6.4 19.3 0.30 0.69 0.69 95 1005.4
20260507190055 7 178 6.4 22.5 0.23 0.58 0.58 95 1005.3
20260507184544 7 132 6.4 27.4 0.18 0.48 0.48 95 1006.0